Погода в Славгороде

Погода в Славгороде : погода сейчас, прогноз погоды и архив. Всё, что Вы хотите узнать о погоде в Славгороде!

Хотите узнать прогноз погоды в Славгороде? Тогда Вам сюда: Погода в Славгороде

Поиск расширенной информации на нашем сайте:

Полезная информация: Самая подробная информация статусы про сук у нас на сайте.

Другие новости

Новости СМИ2

Главная страница сайта

Новости сайта

03.07.2017

Напоминаем, что на нашем специализированном сайте Метеоцентр.Азия вы можете получить высокодетализированные автоматические прогнозы погоды по пунктам России, СНГ и мира в авиационном формате (включающие направление и скорость ветра, видимость, явления погоды, количество и форму облачности, нижнюю и верхнюю границу облачности).

Рекомендуем: гаджет погоды

Погода в Славгороде - сегодня

Время (UTC), дата Ветер
(°,м/с) 
Видим.   Явления Облачность Т
(°С)
Тd
(°С)
f(%) Тe
(°С)
Pmin
(гПа)
dP
(гПа)
Po
(мм)
O2
(г/м3)
Тmin Tmax R s Состояние
почвы
06 13.10.18 тихо ()   11000 м    ясно 
+5 +1.8 80 +5  1034.7  760  301  +2         
09 13.10.18 210 (ЮЗ) 20000 м    ясно 
+14.4 +4.1 50 +15  1033.6  -0.4  760  290           
12 13.10.18 240 (ЮЗ) 20000 м    ясно 
+17.6 +2.3 36 +18  1032.8  -0.5  759  287           
15 13.10.18 230 (ЮЗ) 20000 м    1/0 верхняя 
[Ci fib]
+14.8 +2.3 43 +16  1031.6  -1.4  758  290           
18 13.10.18 220 (ЮЗ) 20000 м    1/0 верхняя 
[Ci fib]
+10.2 +3.2 62 +10  1031.4  -0.6  758  294    +17.8       
21 13.10.18 тихо ()   20000 м    ясно 
+7.1 +3.2 76 +7  1032.2  0.6  758  297           
00 14.10.18 тихо ()   18000 м    ясно 
+4.3 +2.6 89 +4  1032.3  -0.1  758  300           
06 14.10.18 тихо ()   12000 м    4/0 верхняя 
[Ci fib]
+4.7 +3.5 92 +5  1032.4  0.2  758  300  +2.5         
09 14.10.18 230 (ЮЗ) 15000 м    ясно 
+14.9 +9 68 +16  1031.6  758  288           
12 14.10.18 230 (ЮЗ) 20000 м    ясно 
+17.9 +9.3 57 +19  1030.3  -1  758  285           
15 14.10.18 220 (ЮЗ) 16000 м    1/0 верхняя 
[Ci fib]
+15.5 +9.2 66 +17  1029.7  -0.8  757  287           
18 14.10.18 тихо ()   11000 м    ясно 
+10.8 +9.2 90 +11  1030.1  757  292    +18.4       
21 14.10.18 тихо ()   0300 м  туман  ясно 
+7.8 +7.8 100 +8  1030.5  0.2  757  295           
00 15.10.18 тихо ()   0400 м  туман  ясно 
+4.7 +4.7 100 +5  1030.9  0.1  757  299           
06 15.10.18 тихо ()   6000 м  дымка{туман}  ясно 
+3.9 +3.2 95 +4  1031.3  0.4  758  300  +1         
09 15.10.18 150 (ЮВ) 11000 м    3/0 средняя, верхняя 
[Ac lent|Ci sp]
+14.5 +6.3 58 +16  1030.6  0.2  758  289           
12 15.10.18 200 (Ю) 20000 м    4/1 600 м верхняя 
[Sc|Ci sp]
+18.3 +4.1 39 +20  1029.5  -0.8  757  285           
15 15.10.18 160 (Ю) 20000 м    6/0 средняя, верхняя 
[Ac lent|Ci sp]
+15.8 +4.8 48 +17  1028.9  -0.8  756  287           
18 15.10.18 тихо ()   11000 м    3/0 верхняя 
[Ci sp]
+8.3 +5.4 82 +8  1029.4  -0.1  756  295    +18.8       
21 15.10.18 180 (Ю) 10 км    3/0 верхняя 
[Ci sp]
+6.8 +4.5 85 +8  1029.2  -0.3  756  297           
00 16.10.18 тихо ()   9000 м  дымка  ясно 
+2.7 +1.7 93 +3  1029.3  -0.2  756  301           
06 16.10.18 тихо ()   4600 м  дымка  3/0 верхняя 
[Ci sp]
+5.3 +3.3 87 +5  1028.9  -0.2  756  298  +1.1         
09 16.10.18 170 (Ю) 14000 м    ясно 
+14.8 +7.6 62 +16  1028.1  756  288           
12 16.10.18 180 (Ю) 16000 м    1/0 верхняя 
[Ci fib]
+19.6 +7.7 46 +21  1026.8  -0.9  755  283           
15 16.10.18 тихо ()   17000 м    ясно 
+17.5 +7.8 53 +18  1026.3  -0.7  755  284           
Время (UTC), дата Ветер
(°,м/с) 
Видим.   Явления Облачность Т
(°С)
Тd
(°С)
f(%) Тe
(°С)
Pmin
(гПа)
dP
(гПа)
Po
(мм)
O2
(г/м3)
Тmin Tmax R s Состояние
почвы

Для получения пояснительной информации подведите курсор к названию столбца.

ПОГОДА в Славгороде - архив

Всё, что Вы хотите узнать о погоде в Славгороде - удобно и подробно!

Выберите нужную дату (начиная с 1 января 2015* года) и нажмите кнопку "Найти".
Будут отображены архивные сводки погоды по пункту Славгород, начиная с указанной даты.


Отображать данные в формате CSV (для использования в таблицах Excel)


Внимание! Наш архив погоды предназначен исключительно для личного некоммерческого использования в познавательных целях. Если Вам необходимы официальные справки о состоянии погоды (для производственных, юридических, коммерческих и т.п. целей), обращайтесь в органы Росгидромета.

*Примечание: данная дата относится к архиву по метеостанциям СССР (Россия, СНГ, Балтия).
Архив по метеостанциям Зарубежной Европы и Азии (кроме Китая) хранится 10 дней, по другим регионам земного шара (Китай, Африка, Америка, Австралия, Океания) - 1 день.

Славгород - район местоположения метеостанции


Название, широта, долгота, высота метеостанции:
Славгород 53.4°ш. 31°д. 170 м над ур. моря [Беларусь]

Дополнительная информация

В oтличие oт бoльшинства пoгoдных сайтoв мы публикуем пoдрoбную метеoинфoрмацию в детальнoм прoфессиoнальнoм фoрмате.

Характеристики температуры и влажнoсти вoздуха измеряются на высoте 2 м в тени вдали oт зданий и деревьев.
Скoрoсть ветра измеряется на высoте 10 м (на урoвне рoста челoвека скoрoсть ветра ниже в 1.5-2 раза). Если метеoстанция нахoдится в гoрoде или в лесу, тo скoрoсть ветра занижена на 2-4 м/с пo сравнению с oткрытым местoм. Скoрoсть ветра над акватoриями крупных рек и oзёр, а также на вершинах хoлмoв на 2-5 м/с выше, чем в oбычных услoвиях.
Атмoсфернoе давление в разных тoчках местнoсти мoжет значительнo oтличаться oт давления на метеoстанции, в зависимoсти oт услoвий рельефа (при пoдъёме на 10 м давление пoнижается примернo на 1 мм рт.ст.).